Grand Junction, CO

7:58 PM MST on November 11, 2019 (GMT -0700)
Walker

Weather History for KGJT - September, 2019

Change the Weather History Date:

Tuesday, September 3, 2019

  Actual Average Record
Temperature  
Mean Temperature 76 °F 71 °F  
Max Temperature 96 °F 85 °F 99 °F (1995)
Min Temperature 56 °F 57 °F 43 °F (1961)
Degree Days  
Heating Degree Days 0 0  
Month to date heating degree days 0 0  
Since 1 July heating degree days 0 3  
Cooling Degree Days 11 6  
Month to date cooling degree days 41 20  
Year to date cooling degree days 1162 1039  
Growing Degree Days 26 (Base 50)    
Moisture  
Dew Point 33 °F    
Average Humidity 24    
Maximum Humidity 36    
Minimum Humidity 11    
Precipitation  
Precipitation 0.00 in 0.04 in 0.57 in (1910)
Month to date precipitation 0.00 0.11  
Year to date precipitation 6.86 5.96  
Snow  
Snow 0.00 in 0.00 in 0.00 in (2018)
Month to date snowfall 0.0 0.0  
Since 1 July snowfall 0.0 0.0  
Since 1 September snowfall 0.0 0.0  
Snow Depth 0.00 in    
Sea Level Pressure  
Sea Level Pressure 29.88 in    
Wind  
Wind Speed 7 mph (SE)    
Max Wind Speed 15 mph    
Max Gust Speed 20 mph    
Visibility 10 miles    
Events      
T = Trace of Precipitation, MM = Missing Value Source: NWS Daily Summary

Daily Weather History Graph

Daily Weather History Graph

Search for Another Location

Airport or City:

Astronomy

Sep. 03, 2019 Rise Set
Actual Time 6:44 AM MDT 7:41 PM MDT
Civil Twilight 6:17 AM MDT 8:09 PM MDT
Nautical Twilight 5:44 AM MDT 8:41 PM MDT
Astronomical Twilight 5:10 AM MDT 9:14 PM MDT
Moon 11:38 AM MDT (9/3) 10:42 PM MDT (9/3)
Length of Visible Light 13h 51m
Length of Day
12h 57m
Waxing Crescent, 25% of the Moon is Illuminated
Sep 3
Waxing Crescent
Sep 5
First Quarter
Sep 13
Full
Sep 21
Last Quarter
Sep 28
New

Hourly Weather History & Observations

Time (MDT) Temp. Dew Point Humidity Pressure Visibility Wind Dir Wind Speed Gust Speed Precip Events Conditions
12:53 AM 73.0 °F 30.0 °F 20% 29.85 in 10.0 mi East 6.9 mph - N/A   Clear
1:53 AM 66.9 °F 28.0 °F 23% 29.87 in 10.0 mi East 5.8 mph - N/A   Clear
2:53 AM 69.1 °F 28.9 °F 22% 29.87 in 10.0 mi South 6.9 mph - N/A   Clear
3:53 AM 63.0 °F 30.9 °F 30% 29.91 in 10.0 mi NNE 3.5 mph - N/A   Clear
4:53 AM 64.0 °F 30.0 °F 28% 29.91 in 10.0 mi ENE 10.4 mph - N/A   Clear
5:53 AM 66.0 °F 28.9 °F 25% 29.92 in 10.0 mi ESE 3.5 mph - N/A   Clear
6:53 AM 57.9 °F 30.0 °F 35% 29.96 in 10.0 mi East 6.9 mph - N/A   Clear
7:53 AM 66.9 °F 32.0 °F 27% 29.97 in 10.0 mi East 4.6 mph - N/A   Clear
8:53 AM 73.0 °F 35.1 °F 25% 29.98 in 10.0 mi ESE 13.8 mph - N/A   Clear
9:53 AM 78.1 °F 33.1 °F 19% 29.98 in 10.0 mi SE 12.7 mph - N/A   Clear
10:53 AM 84.0 °F 32.0 °F 15% 29.94 in 10.0 mi SSE 11.5 mph - N/A   Clear
11:53 AM 86.0 °F 35.1 °F 16% 29.93 in 10.0 mi South 11.5 mph - N/A   Clear
12:53 PM 89.1 °F 33.1 °F 14% 29.89 in 10.0 mi South 6.9 mph - N/A   Clear
1:53 PM 93.0 °F 34.0 °F 12% 29.88 in 10.0 mi NW 4.6 mph - N/A   Clear
2:53 PM 95.0 °F 39.9 °F 15% 29.84 in 10.0 mi West 12.7 mph - N/A   Clear
3:53 PM 93.9 °F 34.0 °F 12% 29.83 in 10.0 mi West 9.2 mph - N/A   Clear
4:53 PM 95.0 °F 32.0 °F 11% 29.81 in 10.0 mi WNW 9.2 mph - N/A   Clear
5:53 PM 93.0 °F 35.1 °F 13% 29.81 in 10.0 mi WNW 6.9 mph - N/A   Clear
6:53 PM 91.9 °F 32.0 °F 12% 29.83 in 10.0 mi NW 6.9 mph - N/A   Clear
7:53 PM 86.0 °F 37.0 °F 18% 29.83 in 10.0 mi West 3.5 mph - N/A   Clear
8:53 PM 80.1 °F 34.0 °F 19% 29.85 in 10.0 mi Calm Calm - N/A   Clear
9:53 PM 84.0 °F 33.1 °F 16% 29.85 in 10.0 mi ESE 6.9 mph - N/A   Clear
10:53 PM 80.1 °F 35.1 °F 20% 29.85 in 10.0 mi WSW 5.8 mph - N/A   Clear
11:53 PM 77.0 °F 33.1 °F 20% 29.85 in 10.0 mi ESE 3.5 mph - N/A   Clear